RH
6 4 3 4 4 5 7 9 11 12 11 11 11 11 11 12 12 12 12 12 12 12 12 12 11 10 8 7 6 4 4 3
5 6 7 9 9 11 13 11 11 13 13 14 14 15 15 16 16 16 15 15 15 14 15 15 16 16 16 15 15 14 10 7
8 9 10 10 11 13 13 14 15 16 17 18 20 23 27 30 33 35 38 40 43 38 29 22 18 17 18 18 17 16 16 13
12 12 12 12 13 14 15 16 17 18 20 22 28 34 37 39 41 43 46 48 52 54 57 57 52 41 30 26 24 22 20 19
10 12 12 12 14 15 16 16 18 21 24 25 29 33 35 36 40 44 46 49 51 52 56 56 55 54 55 56 49 33 28 26
10 11 11 15 16 18 20 24 26 28 29 31 34 40 43 43 43 44 47 48 50 51 51 51 50 49 50 49 49 52 51 44
9 11 16 20 22 24 25 28 32 37 40 42 42 41 41 46 49 50 48 48 50 51 51 50 49 46 44 44 45 47 49 49
15 19 23 28 31 32 32 35 42 44 44 42 42 43 45 46 49 51 51 50 50 50 52 53 52 48 45 44 44 44 45 47
26 27 29 32 37 42 48 50 53 53 47 42 40 42 47 52 53 52 50 50 52 50 50 50 50 50 50 51 50 49 46 45
41 43 43 45 48 55 59 56 48 41 35 35 39 45 51 56 56 53 50 48 46 44 42 42 43 43 43 43 44 44 45 45
35 31 32 30 34 40 41 40 38 44 49 50 53 54 51 51 47 43 35 34 34 33 33 33 34 39 38 38 40 41 40 43
29 30 34 39 46 50 48 49 52 54 55 57 56 50 44 36 30 28 25 26 29 27 28 31 40 44 42 41 44 40 39 41
37 42 47 54 55 52 50 54 60 56 57 54 46 39 37 31 28 26 26 23 29 37 38 34 38 46 41 46 41 38 44 43
46 50 52 57 59 58 62 66 63 62 50 41 34 32 32 34 34 33 33 32 38 55 60 52 46 53 40 44 32 35 34 44
50 57 59 65 67 60 55 52 47 33 32 33 35 32 40 46 51 58 61 57 56 56 58 59 51 46 44 44 34 23 30 23
60 60 59 56 53 48 42 34 30 33 35 37 41 40 45 46 47 55 61 74 82 67 50 52 62 52 54 40 27 23 12 13
51 50 47 39 31 31 32 37 42 38 42 44 62 63 59 62 65 58 52 51 49 50 49 51 49 35 31 20 18 6 7 6
46 37 29 30 33 37 37 43 49 48 46 49 54 60 62 60 58 58 56 57 58 55 43 18 10 10 9 9 8 10 7 6
38 35 36 36 38 43 48 48 49 54 59 61 58 53 48 49 52 51 45 29 16 8 7 8 10 10 10 10 10 9 9 8
42 43 44 46 50 55 62 69 66 60 53 49 42 34 28 22 19 18 16 12 8 9 11 11 11 10 8 8 9 12 13 15
Wind_Speed
8 7 6 8 8 9 9 11 11 12 12 12 11 12 12 13 14 15 15 15 15 16 16 16 15 15 16 16 17 17 17 18
2 3 4 4 5 6 7 8 9 10 11 11 11 11 13 13 14 15 16 17 17 18 19 20 21 20 20 21 21 20 19 19
2 3 4 4 4 6 8 10 11 12 13 13 13 14 14 15 16 17 18 19 20 20 21 22 23 24 24 24 24 23 22 23
4 6 7 10 12 14 15 16 17 17 18 18 18 18 19 20 21 22 22 23 25 26 26 25 26 27 28 29 28 28 26 24
9 11 14 15 16 18 18 18 20 21 22 23 24 26 28 30 32 32 30 30 31 31 31 32 32 31 31 31 32 33 32 31
15 16 17 16 18 20 22 23 25 26 28 30 31 32 33 34 34 34 34 34 35 36 37 37 37 37 37 36 35 36 36 36
17 17 17 19 21 24 27 29 31 32 33 33 33 34 33 33 34 35 37 37 37 37 37 37 38 39 41 40 39 38 37 38
20 20 21 23 25 28 32 33 33 34 35 36 36 35 37 39 40 40 40 41 41 41 40 40 40 40 39 40 41 41 42 42
24 25 26 28 31 33 34 34 35 36 37 38 39 40 42 44 43 43 43 41 40 41 41 42 42 43 44 45 46 46 46 47
26 27 28 30 33 34 36 38 39 39 39 42 44 46 49 47 45 45 44 42 41 42 42 42 43 44 45 47 47 48 48 49
31 33 35 35 37 39 42 42 41 42 45 46 47 49 49 48 47 47 47 47 47 49 49 48 48 47 48 48 48 47 48 48
36 38 35 37 40 41 42 42 45 47 49 50 51 52 51 51 51 53 55 56 57 58 56 55 53 53 54 54 53 53 53 52
38 40 39 40 41 43 45 47 49 51 52 52 53 54 56 56 57 57 59 61 62 62 62 62 62 61 61 61 61 60 58 58
39 40 41 43 45 46 48 50 51 52 51 53 55 57 58 59 61 62 63 63 64 64 64 66 67 65 66 65 66 67 67 61
40 41 44 46 48 49 49 50 50 51 54 58 60 61 62 64 65 68 69 67 67 67 68 69 69 70 71 70 71 72 73 74
41 43 45 45 46 48 50 51 53 54 57 61 64 63 65 67 68 69 71 72 73 74 73 73 73 73 76 77 74 71 69 71
44 43 44 46 49 50 51 55 60 63 65 65 68 71 73 75 75 77 77 77 77 77 76 76 79 79 77 76 75 76 70 70
42 45 48 51 53 54 56 59 62 67 70 72 74 76 78 80 81 80 79 78 78 79 81 81 80 81 80 79 77 73 73 71
48 51 54 56 58 61 64 68 69 71 74 76 77 78 79 80 81 82 83 84 84 82 81 83 83 85 82 81 79 76 74 73
52 54 55 59 62 65 68 69 71 73 74 76 77 78 79 81 83 84 84 85 87 86 86 87 88 87 86 85 82 78 74 72
Wind_Direction
21 39 38 47 31 14 355 345 337 338 334 335 337 338 335 330 327 324 320 316 314 312 310 307 304 301 297 292 289 286 288 289
87 61 34 13 352 330 323 314 317 323 323 326 330 330 325 324 325 321 317 314 311 308 305 303 299 295 293 291 288 284 284 283
360 350 331 317 309 306 307 316 319 317 312 313 316 317 315 316 313 310 308 306 303 298 292 289 288 286 286 285 285 284 282 278
298 296 307 319 326 325 321 316 312 308 309 310 311 311 310 308 305 300 295 294 296 296 295 292 287 282 279 278 275 273 272 272
310 321 322 327 326 319 312 309 308 308 307 306 305 304 305 305 305 302 297 293 292 292 291 291 288 285 281 279 277 273 268 265
317 315 318 319 315 310 307 305 304 304 305 306 305 306 306 305 303 301 298 295 292 291 290 290 290 288 285 282 279 275 272 269
310 312 311 307 304 303 303 304 305 304 304 304 305 304 303 303 302 301 299 297 295 291 288 287 287 288 288 287 285 280 275 273
310 307 304 302 302 302 301 299 299 299 301 303 303 301 301 300 298 298 300 299 295 292 289 287 285 285 283 282 283 283 281 277
306 302 299 296 296 297 295 293 296 298 299 301 301 299 300 301 299 299 298 297 296 293 291 289 287 285 283 280 279 277 276 275
301 298 292 290 293 295 295 296 297 299 300 299 297 296 298 302 301 299 298 296 294 291 289 287 286 284 283 283 282 280 278 275
301 299 300 301 302 301 301 301 301 302 303 301 300 299 302 303 303 302 299 298 296 294 294 292 290 288 286 284 282 281 278 275
301 304 302 300 302 303 303 301 301 303 302 301 302 305 305 304 303 303 302 302 300 298 296 294 292 291 289 287 285 282 282 281
297 299 301 299 300 303 303 301 301 303 303 303 304 303 302 301 298 298 297 296 295 294 293 292 292 291 289 289 286 286 284 282
294 296 297 297 297 299 299 299 299 297 299 299 298 296 295 294 293 291 292 291 290 289 288 289 289 288 287 287 286 285 283 282
294 294 294 296 297 297 297 295 294 296 297 295 293 294 295 294 292 291 292 292 292 292 291 289 289 288 288 287 286 283 283 281
290 289 291 295 296 296 294 294 293 294 295 294 294 294 293 293 292 292 291 290 289 290 289 288 288 286 286 286 283 284 282 282
294 298 299 296 293 292 295 297 300 303 303 302 300 299 298 298 296 294 294 294 294 293 292 291 291 290 290 289 288 286 282 279
296 297 297 299 302 302 299 301 300 300 301 300 299 298 296 296 295 295 294 293 292 291 290 290 290 290 289 287 286 283 280 277
303 305 306 306 304 303 302 302 302 301 299 298 297 297 297 297 296 294 292 291 291 291 290 290 289 288 288 286 284 281 278 276
305 305 303 302 302 302 303 302 299 298 298 298 298 298 296 295 294 294 293 293 293 293 292 291 289 287 284 281 279 276 272 268